Weather History for West Palm Beach, FL

Change the Weather History Date:

Thursday, November 15, 2012

  Actual Average Record
Temperature  
Mean Temperature 73 °F 73 °F  
Max Temperature 82 °F 80 °F 88 °F (2008)
Min Temperature 64 °F 66 °F 45 °F (1969)
Degree Days  
Heating Degree Days 0 0  
Month to date heating degree days 4 0  
Since 1 July heating degree days 9 1  
Cooling Degree Days 8 8  
Month to date cooling degree days 103 137  
Year to date cooling degree days 3954 3758  
Growing Degree Days 23 (Base 50)    
Moisture  
Dew Point 64 °F    
Average Humidity 74    
Maximum Humidity 93    
Minimum Humidity 54    
Precipitation  
Precipitation T in 0.18 in 3.04 in (1994)
Month to date precipitation 0.11 2.67  
Year to date precipitation 76.96 56.87  
Snow  
Snow 0.00 in - - ()
Month to date snowfall 0.0  
Since 1 July snowfall 0.0  
Since 1 September snowfall 0.0  
Snow Depth 0.00 in    
Sea Level Pressure  
Sea Level Pressure 30.06 in    
Wind  
Wind Speed 6 mph (North)    
Max Wind Speed 17 mph    
Max Gust Speed 20 mph    
Visibility 10 miles    
Events      
T = Trace of Precipitation, MM = Missing Value Source: NWS Daily Summary

Daily Weather History Graph

Daily Weather History Graph

Search for Another Location

Airport:

Trip Planner

Search our weather history database for the weather conditions in past years. The results will help you decide how hot, cold, wet, or windy it might be!

Date:

Astronomy

Nov. 15, 2012 Rise Set
Actual Time 6:40 AM EST 5:29 PM EST
Civil Twilight 6:15 AM EST 5:54 PM EST
Nautical Twilight 5:47 AM EST 6:22 PM EST
Astronomical Twilight 5:19 AM EST 6:49 PM EST
Moon 8:28 AM EST (11/15) 7:25 PM EST (11/15)
Length of Visible Light 11h 38m
Length of Day
10h 49m
Waxing Crescent, 5% of the Moon is Illuminated
Nov 15
Waxing Crescent
Nov 20
First Quarter
Nov 28
Full
Dec 6
Last Quarter
Dec 13
New

Hourly Weather History & Observations

Time (EST) Temp. Heat Index Dew Point Humidity Pressure Visibility Wind Dir Wind Speed Gust Speed Precip Events Conditions
12:53 AM 73.0 °F - 62.1 °F 68% 30.07 in 10.0 mi East 5.8 mph - N/A   Partly Cloudy
1:53 AM 73.9 °F - 61.0 °F 64% 30.06 in 10.0 mi East 4.6 mph - N/A   Scattered Clouds
2:53 AM 66.0 °F - 63.0 °F 90% 30.05 in 10.0 mi NW 3.5 mph - N/A   Partly Cloudy
3:53 AM 64.9 °F - 63.0 °F 93% 30.04 in 10.0 mi NW 3.5 mph - N/A   Partly Cloudy
4:53 AM 64.9 °F - 63.0 °F 93% 30.04 in 10.0 mi Calm Calm - N/A   Scattered Clouds
5:53 AM 64.9 °F - 63.0 °F 93% 30.05 in 10.0 mi Calm Calm - N/A   Partly Cloudy
6:53 AM 64.9 °F - 63.0 °F 93% 30.05 in 10.0 mi Calm Calm - N/A   Partly Cloudy
7:53 AM 69.1 °F - 64.9 °F 87% 30.07 in 10.0 mi NNW 4.6 mph - N/A   Partly Cloudy
8:53 AM 75.9 °F - 64.9 °F 69% 30.09 in 10.0 mi North 3.5 mph - N/A   Partly Cloudy
9:53 AM 78.1 °F - 63.0 °F 60% 30.10 in 10.0 mi Calm Calm - N/A   Scattered Clouds
10:53 AM 79.0 °F - 63.0 °F 58% 30.09 in 10.0 mi NNW 5.8 mph - N/A   Scattered Clouds
11:53 AM 79.0 °F - 60.1 °F 52% 30.08 in 10.0 mi Calm Calm - N/A   Scattered Clouds
12:53 PM 81.0 °F 82.5 °F 64.0 °F 56% 30.05 in 10.0 mi ENE 5.8 mph - N/A   Mostly Cloudy
1:53 PM 80.1 °F 81.7 °F 64.0 °F 58% 30.04 in 10.0 mi ENE 10.4 mph - 0.00 in   Mostly Cloudy
2:53 PM 78.1 °F - 66.0 °F 66% 30.04 in 10.0 mi NE 12.7 mph - N/A   Mostly Cloudy
3:53 PM 77.0 °F - 64.9 °F 66% 30.04 in 10.0 mi NNE 13.8 mph - N/A   Mostly Cloudy
4:53 PM 75.0 °F - 66.0 °F 73% 30.04 in 10.0 mi NNE 10.4 mph - N/A   Mostly Cloudy
5:53 PM 73.9 °F - 66.0 °F 76% 30.05 in 10.0 mi North 9.2 mph - N/A   Scattered Clouds
6:53 PM 73.0 °F - 66.0 °F 79% 30.06 in 10.0 mi North 8.1 mph - N/A   Scattered Clouds
7:53 PM 71.1 °F - 64.9 °F 81% 30.07 in 10.0 mi North 10.4 mph - N/A   Scattered Clouds
8:53 PM 69.1 °F - 64.0 °F 84% 30.08 in 10.0 mi North 9.2 mph - N/A   Scattered Clouds
9:53 PM 68.0 °F - 64.0 °F 87% 30.09 in 10.0 mi NNW 6.9 mph - N/A   Partly Cloudy
10:53 PM 66.9 °F - 64.0 °F 90% 30.08 in 10.0 mi NW 8.1 mph - N/A   Partly Cloudy
11:53 PM 66.0 °F - 64.0 °F 93% 30.07 in 10.0 mi NNW 9.2 mph - N/A   Partly Cloudy